Content
SEND FEEDBACK

Daily
Averages
Monthly
Summary
Brazil

SÃO PAULO, SÃO PAULO


Home > South America > Brazil > São Paulo
Elevation: 2634 feet     Latitude: 23 37S     Longitude: 046 39W

WEATHER
 
SELECT A DAY
Number of Records: 157,985;   Date Range: 6/30/96 - 7/8/14
 
SHARE

PRINT THIS DATA

[ ← Previous Day ]
WEATHER ALMANAC - JANUARY 23, 2013
[ Next Day → ]
[ °C ]   °F
Weather ElementAverageHighLow
Temperature69.6 °F78.8 °F (1:00 pm)64.4 °F (4:00 am)
Dewpoint61.1 °F65 °F (4:00 pm)57.2 °F (1:00 pm)
Humidity74.2 %83 % (1:00 am)47 % (1:00 pm)
Barometer30.09 in30.18 in (1:00 am)30.04 in (5:00 pm)
Wind Speed8.5 mph13.8 mph (3:00 pm)
Weather ElementAverage
Visibility5.9 mi
Wind DirectionESE (127.9 °)

Weather ElementTotal
Precipitation---
Cooling Degree Days6.6 (Base 65)
Growing Degree Days21.6 (Base 50)
Averaged from 28 records on January 23, 2013
WEATHER CONDITIONS BREAKOUT
WIND DIRECTION BREAKOUT
WEATHER BY HOUR - JANUARY 23, 2013
[ °C ]   °F
Local TimeTemperatureDewpointHumidityBarometerVisibilityWind DirectionWind SpeedGust SpeedPrecipitationEventsConditions
1:00 AM66.2 °F60.8 °F83 %30.18 in6.2 miESE (110°)8.1 mphMostly Cloudy
2:00 AM66.2 °F60.8 °F83 %30.15 in6.2 miESE (120°)9.2 mphMostly Cloudy
3:00 AM66.2 °F59.0 °F78 %30.12 in6.2 miSE (130°)9.2 mphMostly Cloudy
4:00 AM65.0 °F59.0 °F74 %12.0 miSE (130°)9.2 mphMostly Cloudy
4:00 AM64.4 °F59.0 °F83 %30.12 in6.2 miSE (130°)9.2 mphMostly Cloudy
5:00 AM66.2 °F59.0 °F78 %30.09 in6.2 miESE (110°)5.8 mphOvercast
6:00 AM66.2 °F59.0 °F78 %30.09 in6.2 miESE (120°)5.8 mphOvercast
7:00 AM66.2 °F59.0 °F78 %30.12 in5.0 miESE (110°)6.9 mphOvercast
8:00 AM68.0 °F59.0 °F73 %30.15 in6.2 miEast (100°)8.1 mphMostly Cloudy
9:00 AM68.0 °F59.0 °F73 %30.15 in6.2 miENE (70°)9.2 mphOvercast
10:00 AM71.0 °F58.0 °F55 %12.0 miENE (70°)9.2 mphMostly Cloudy
10:00 AM71.6 °F59.0 °F64 %30.15 in6.2 miENE (70°)9.2 mphMostly Cloudy
11:00 AM71.6 °F59.0 °F64 %30.12 in6.2 miEast (90°)8.1 mphMostly Cloudy
12:00 PM75.2 °F59.0 °F57 %30.12 in6.2 miSE (130°)5.8 mphMostly Cloudy
1:00 PM78.8 °F57.2 °F47 %30.12 in6.2 miSE (130°)5.8 mphMostly Cloudy
2:00 PM77.0 °F62.6 °F61 %30.09 in6.2 miSSE (150°)6.9 mphMostly Cloudy
3:00 PM77.0 °F62.6 °F61 %30.06 in6.2 miSSE (150°)13.8 mphMostly Cloudy
4:00 PM71.0 °F65.0 °F76 %3.0 miSouth (190°)11.5 mphRainLight Rain
4:00 PM69.8 °F64.4 °F83 %30.06 in3.1 miSouth (190°)11.5 mphRainLight Rain
4:32 PM69.8 °F64.4 °F83 %30.06 in2.5 miSouth (190°)13.8 mphRain-ThunderstormLight Thunderstorms and Rain
5:00 PM69.8 °F64.4 °F83 %30.04 in5.0 miSouth (170°)11.5 mphMostly Cloudy
6:00 PM69.8 °F62.6 °F78 %30.04 in5.0 miSE (140°)10.4 mphRainLight Rain
7:00 PM69.8 °F64.4 °F83 %30.04 in5.6 miSE (140°)8.1 mphOvercast
8:00 PM68.0 °F62.6 °F83 %30.04 in3.1 miESE (120°)8.1 mphOvercast
9:00 PM68.0 °F62.6 °F83 %30.04 in3.7 miSE (130°)8.1 mphOvercast
10:00 PM69.0 °F63.0 °F75 %6.0 miSE (130°)5.8 mphMist
10:00 PM68.0 °F62.6 °F83 %30.06 in6.2 miSE (130°)5.8 mphOvercast
11:00 PM69.8 °F62.6 °F78 %30.06 in6.2 miSE (130°)4.6 mphMostly Cloudy
Hourly data recorded from SBSP, located miles away from São Paulo, São Paulo







STORIES FROM OUR PARTNERS